Jackson, KY

10:27 AM EDT on October 01, 2016 (GMT -0400)
Carroll

Weather History for KJKL - January, 2012

Change the Weather History Date:

Saturday, January 28, 2012

  Actual Average Record
Temperature  
Mean Temperature 40 °F 36 °F  
Max Temperature 48 °F 44 °F 72 °F (2002)
Min Temperature 31 °F 27 °F -2 °F (1986)
Degree Days  
Heating Degree Days 25 30  
Month to date heating degree days 716 840  
Since 1 July heating degree days 2093 2474  
Cooling Degree Days 0 0  
Month to date cooling degree days 0 0  
Year to date cooling degree days 0 0  
Moisture  
Dew Point 25 °F    
Average Humidity 61    
Maximum Humidity 89    
Minimum Humidity 33    
Precipitation  
Precipitation 0.01 in 0.13 in 0.97 in (2009)
Month to date precipitation 4.86 3.24  
Year to date precipitation 4.86 3.24  
Snow  
Snow 0.00 in 0.30 in 1.30 in (2009)
Month to date snowfall 3.8 6.3  
Since 1 July snowfall 4.2 11.8  
Snow Depth 0.00 in    
Sea Level Pressure  
Sea Level Pressure 30.14 in    
Wind  
Wind Speed 6 mph (WSW)    
Max Wind Speed 18 mph    
Max Gust Speed 28 mph    
Visibility 10 miles    
Events Rain    
T = Trace of Precipitation, MM = Missing Value Source: NWS Daily Summary

Daily Weather History Graph

Daily Weather History Graph

Search for Another Location

Airport or City:

Trip Planner

Search our weather history database for the weather conditions in past years. The results will help you decide how hot, cold, wet, or windy it might be!

Date:

Astronomy

Jan. 28, 2012 Rise Set
Actual Time 7:40 AM EST 5:52 PM EST
Civil Twilight 7:12 AM EST 6:20 PM EST
Nautical Twilight 6:41 AM EST 6:51 PM EST
Astronomical Twilight 6:10 AM EST 7:22 PM EST
Moon 10:09 AM EST (1/28) 11:31 PM EST (1/28)
Length of Visible Light 11h 07m
Length of Day
10h 11m
Waxing Crescent, 27% of the Moon is Illuminated
Jan 28
Waxing Crescent
Jan 30
First Quarter
Feb 7
Full
Feb 14
Last Quarter
Feb 21
New

Hourly Weather History & Observations

Time (EST) Temp. Windchill Dew Point Humidity Pressure Visibility Wind Dir Wind Speed Gust Speed Precip Events Conditions
12:53 AM 37.0 °F 34.5 °F 30.9 °F 79% 30.02 in 10.0 mi Variable 3.5 mph - N/A   Clear
1:53 AM 35.1 °F - 30.0 °F 82% 30.01 in 10.0 mi Calm Calm - N/A   Clear
2:53 AM 35.1 °F 32.2 °F 28.9 °F 78% 29.99 in 10.0 mi South 3.5 mph - N/A   Clear
3:53 AM 33.1 °F 30.0 °F 28.9 °F 85% 30.02 in 10.0 mi SSW 3.5 mph - N/A   Clear
4:53 AM 34.0 °F 31.0 °F 30.0 °F 85% 30.03 in 10.0 mi SW 3.5 mph - N/A   Scattered Clouds
5:53 AM 34.0 °F 29.8 °F 30.0 °F 85% 30.02 in 10.0 mi Variable 4.6 mph - N/A   Clear
6:53 AM 35.1 °F 31.0 °F 30.9 °F 85% 30.03 in 10.0 mi SSW 4.6 mph - N/A   Partly Cloudy
7:53 AM 37.0 °F 32.4 °F 32.0 °F 82% 30.04 in 10.0 mi SSW 5.8 mph - N/A   Overcast
8:53 AM 39.0 °F 35.7 °F 33.1 °F 79% 30.03 in 10.0 mi Variable 4.6 mph - 0.00 in Rain Light Rain
9:53 AM 42.1 °F 36.1 °F 35.1 °F 76% 30.05 in 10.0 mi WSW 10.4 mph 17.3 mph 0.00 in   Overcast
10:53 AM 39.9 °F 35.8 °F 36.0 °F 86% 30.10 in 5.0 mi Variable 5.8 mph 20.7 mph 0.01 in Rain Light Rain
11:08 AM 39.2 °F 34.2 °F 35.6 °F 87% 30.09 in 10.0 mi Variable 6.9 mph 18.4 mph 0.00 in Rain Light Rain
11:53 AM 39.9 °F 32.1 °F 34.0 °F 79% 30.14 in 10.0 mi West 13.8 mph 24.2 mph 0.00 in   Overcast
12:42 PM 42.8 °F 36.6 °F 32.0 °F 66% 30.12 in 10.0 mi West 11.5 mph 20.7 mph N/A   Mostly Cloudy
12:53 PM 44.1 °F 40.1 °F 32.0 °F 63% 30.14 in 10.0 mi West 6.9 mph 18.4 mph N/A   Mostly Cloudy
1:53 PM 46.9 °F - 28.0 °F 48% 30.16 in 10.0 mi Variable 4.6 mph 20.7 mph N/A   Overcast
2:53 PM 44.1 °F 37.4 °F 17.1 °F 34% 30.18 in 10.0 mi WNW 13.8 mph 19.6 mph N/A   Clear
3:53 PM 44.1 °F 39.0 °F 18.0 °F 35% 30.21 in 10.0 mi West 9.2 mph 18.4 mph N/A   Clear
4:53 PM 42.1 °F 35.2 °F 16.0 °F 35% 30.23 in 10.0 mi West 12.7 mph 19.6 mph N/A   Clear
5:53 PM 39.0 °F 34.8 °F 15.1 °F 38% 30.25 in 10.0 mi West 5.8 mph - N/A   Clear
6:53 PM 37.0 °F 31.0 °F 14.0 °F 39% 30.27 in 10.0 mi West 8.1 mph - N/A   Clear
7:53 PM 36.0 °F 32.1 °F 15.1 °F 43% 30.30 in 10.0 mi WSW 4.6 mph - N/A   Clear
8:53 PM 35.1 °F 30.1 °F 15.1 °F 44% 30.30 in 10.0 mi WSW 5.8 mph - N/A   Clear
9:53 PM 33.1 °F 27.7 °F 14.0 °F 46% 30.30 in 10.0 mi West 5.8 mph - N/A   Clear
10:53 PM 32.0 °F 26.4 °F 14.0 °F 48% 30.31 in 10.0 mi West 5.8 mph - N/A   Clear
11:53 PM 30.9 °F 26.2 °F 14.0 °F 50% 30.32 in 10.0 mi West 4.6 mph - N/A   Clear